{"data":{"norad_id":51737,"epoch":"2026-05-24T21:33:18.317088Z","epoch_age_seconds":84007,"freshness":"FRESH","line1":"1 51737U 22016Z   26144.89812867  .00000536  00000+0  51791-4 0  9990","line2":"2 51737  53.2122 337.0079 0001268  92.4791 267.6346 15.08837042235066","mean_motion":15.08837042,"eccentricity":0.0001268,"inclination_deg":53.2122,"raan_deg":337.0079,"arg_perigee_deg":92.4791,"mean_anomaly_deg":267.6346,"bstar":5.1791e-5,"rev_number":23506,"period_min":95.437741778346,"perigee_km":538.87524202173,"apogee_km":540.62961878128,"semimajor_km":6917.8894304015,"source":"CELESTRAK","updated_at":"2026-05-25T13:38:16.924191Z"}}